Total_Precipitation_Accumulation
0.67 0.88 0.93 0.84 0.84 0.91 0.82 0.77 0.86 0.85 0.71 0.87 0.83 0.66 0.56 0.52 0.50 0.54 0.60 0.62 0.59 0.48 0.37 0.33 0.32 0.40 0.48 0.48 0.47 0.57 0.60 0.68 0.67 0.56 0.54 0.67 0.81 0.95 1.11 1.30 1.31 1.52 1.64 1.54
0.77 0.66 0.50 0.60 0.66 0.76 0.79 0.85 0.89 0.79 0.67 0.77 0.83 0.69 0.56 0.47 0.42 0.44 0.49 0.53 0.53 0.45 0.39 0.36 0.31 0.34 0.39 0.44 0.40 0.44 0.51 0.62 0.73 0.72 0.71 0.82 1.01 1.11 1.22 1.41 1.44 1.51 1.51 1.49
0.58 0.46 0.41 0.52 0.61 0.75 0.74 0.81 0.81 0.82 0.83 0.77 0.83 0.91 0.69 0.52 0.45 0.44 0.43 0.46 0.47 0.40 0.37 0.37 0.34 0.31 0.34 0.36 0.33 0.39 0.51 0.66 0.84 1.01 1.24 1.48 1.77 1.90 1.78 1.67 1.75 1.82 1.85 1.76
0.67 0.44 0.42 0.51 0.57 0.66 0.84 0.57 0.59 0.71 0.98 1.02 0.82 1.08 0.74 0.52 0.51 0.51 0.47 0.42 0.40 0.36 0.33 0.31 0.32 0.32 0.33 0.41 0.48 0.58 0.75 0.91 1.07 1.27 1.49 1.76 2.06 2.29 2.26 2.28 2.33 2.25 2.15 2.02
0.76 0.48 0.44 0.50 0.46 0.51 0.66 0.57 0.59 0.71 0.95 0.92 0.79 0.81 0.67 0.53 0.62 0.63 0.58 0.49 0.47 0.45 0.42 0.42 0.43 0.43 0.47 0.60 0.74 0.85 1.14 1.33 1.43 1.47 1.57 1.80 1.90 2.02 2.13 2.26 2.31 2.29 2.19 2.07
0.65 0.46 0.42 0.42 0.39 0.43 0.55 0.67 0.77 0.88 1.01 0.98 0.66 0.64 0.70 0.52 0.59 0.69 0.66 0.58 0.52 0.50 0.47 0.50 0.58 0.60 0.68 0.92 1.17 1.30 1.44 1.67 1.61 1.50 1.49 1.61 1.76 1.87 1.99 2.14 2.20 2.13 1.98 1.94
0.62 0.52 0.40 0.39 0.50 0.48 0.57 0.89 1.15 1.18 1.11 0.80 0.43 0.50 0.58 0.42 0.40 0.49 0.55 0.55 0.51 0.45 0.45 0.51 0.61 0.75 0.97 1.21 1.41 1.55 1.59 1.61 1.53 1.39 1.44 1.48 1.63 1.79 1.85 1.89 1.89 1.87 1.81 1.74
0.53 0.58 0.39 0.34 0.40 0.46 0.50 0.65 0.99 1.10 0.94 0.66 0.46 0.61 0.59 0.42 0.32 0.29 0.30 0.36 0.46 0.51 0.57 0.61 0.67 0.87 1.20 1.47 1.70 1.96 1.97 1.77 1.60 1.50 1.53 1.57 1.67 1.73 1.69 1.61 1.62 1.63 1.58 1.53
0.44 0.44 0.34 0.32 0.34 0.37 0.47 0.48 0.52 0.73 0.63 0.61 0.52 0.55 0.48 0.32 0.27 0.25 0.28 0.33 0.46 0.55 0.65 0.77 0.93 1.05 1.32 1.56 1.86 2.17 2.27 2.08 1.93 1.84 1.76 1.77 1.67 1.55 1.46 1.38 1.37 1.39 1.41 1.32
0.38 0.43 0.39 0.37 0.44 0.40 0.38 0.43 0.52 0.77 0.85 0.81 0.60 0.59 0.51 0.35 0.27 0.27 0.36 0.42 0.50 0.60 0.64 0.82 1.15 1.44 1.75 1.72 1.84 2.05 2.04 2.00 2.00 2.01 2.00 1.92 1.72 1.53 1.46 1.40 1.39 1.35 1.37 1.27
0.33 0.44 0.46 0.44 0.41 0.37 0.38 0.43 0.51 0.66 0.68 0.87 0.91 0.77 0.49 0.42 0.40 0.44 0.51 0.53 0.57 0.65 0.71 0.90 1.12 1.35 1.62 1.76 1.77 1.77 1.78 1.87 1.90 1.81 1.76 1.68 1.45 1.28 1.23 1.23 1.21 1.18 1.17 1.09
0.31 0.43 0.47 0.40 0.33 0.34 0.42 0.45 0.52 0.82 0.81 0.74 0.98 0.98 0.58 0.54 0.55 0.63 0.70 0.74 0.77 0.79 0.86 1.01 1.13 1.33 1.44 1.47 1.58 1.67 1.58 1.57 1.57 1.48 1.38 1.26 1.18 1.10 1.08 1.07 0.99 0.92 0.97 0.95
0.38 0.54 0.61 0.59 0.53 0.46 0.59 0.62 0.53 0.54 0.72 0.86 1.05 1.03 0.75 0.73 0.76 0.85 0.96 0.99 0.93 0.87 0.87 0.98 1.07 1.17 1.25 1.30 1.40 1.55 1.48 1.47 1.48 1.35 1.26 1.16 1.08 1.09 1.07 0.97 0.92 0.79 0.74 0.81
0.39 0.50 0.48 0.51 0.47 0.47 0.65 0.70 0.61 0.65 0.81 0.83 0.83 0.90 0.91 1.00 1.00 1.01 1.02 0.99 0.90 0.80 0.74 0.72 0.76 0.85 0.94 1.00 1.09 1.25 1.28 1.41 1.55 1.49 1.35 1.26 1.16 1.08 1.06 0.91 0.82 0.74 0.77 0.83
0.38 0.44 0.33 0.26 0.26 0.30 0.45 0.54 0.52 0.60 0.64 0.67 0.68 0.74 0.89 0.98 1.00 0.97 0.88 0.76 0.70 0.63 0.54 0.50 0.55 0.65 0.74 0.84 0.87 0.96 1.11 1.33 1.39 1.21 1.01 0.92 0.94 0.93 0.87 0.82 0.76 0.68 0.65 0.64
0.38 0.41 0.34 0.29 0.24 0.25 0.27 0.26 0.30 0.34 0.38 0.45 0.57 0.73 0.77 0.77 0.77 0.71 0.59 0.48 0.46 0.44 0.42 0.42 0.46 0.52 0.54 0.58 0.66 0.81 0.89 0.97 0.96 0.88 0.81 0.78 0.75 0.71 0.70 0.71 0.69 0.64 0.57 0.52
0.37 0.43 0.48 0.42 0.26 0.31 0.28 0.20 0.25 0.34 0.35 0.45 0.67 0.79 0.68 0.61 0.57 0.54 0.43 0.32 0.33 0.32 0.35 0.38 0.39 0.41 0.39 0.41 0.45 0.49 0.58 0.69 0.67 0.60 0.55 0.58 0.65 0.62 0.60 0.66 0.69 0.67 0.63 0.58
0.32 0.43 0.55 0.53 0.48 0.48 0.26 0.15 0.17 0.27 0.33 0.41 0.54 0.57 0.49 0.46 0.40 0.36 0.31 0.28 0.29 0.29 0.30 0.29 0.29 0.31 0.32 0.34 0.37 0.41 0.46 0.53 0.57 0.52 0.48 0.47 0.53 0.58 0.61 0.63 0.65 0.65 0.64 0.60
0.25 0.43 0.61 0.61 0.65 0.39 0.18 0.15 0.17 0.21 0.26 0.26 0.31 0.33 0.31 0.32 0.33 0.33 0.29 0.27 0.27 0.25 0.25 0.25 0.27 0.31 0.34 0.37 0.38 0.36 0.36 0.40 0.45 0.47 0.47 0.48 0.48 0.54 0.59 0.59 0.58 0.58 0.58 0.57
0.24 0.36 0.57 0.64 0.70 0.52 0.29 0.19 0.17 0.20 0.30 0.23 0.22 0.23 0.23 0.25 0.40 0.42 0.30 0.24 0.22 0.23 0.23 0.25 0.28 0.32 0.35 0.37 0.38 0.38 0.36 0.36 0.37 0.42 0.46 0.51 0.54 0.54 0.54 0.60 0.67 0.64 0.62 0.61
0.32 0.40 0.47 0.58 0.66 0.41 0.21 0.18 0.22 0.39 0.42 0.23 0.19 0.19 0.22 0.28 0.35 0.37 0.31 0.25 0.22 0.25 0.27 0.27 0.30 0.31 0.33 0.36 0.39 0.43 0.44 0.43 0.44 0.45 0.49 0.51 0.51 0.53 0.58 0.62 0.68 0.71 0.67 0.62
0.38 0.47 0.50 0.55 0.65 0.46 0.20 0.20 0.32 0.37 0.23 0.18 0.16 0.18 0.20 0.25 0.25 0.25 0.26 0.24 0.23 0.24 0.26 0.28 0.31 0.31 0.35 0.36 0.37 0.37 0.40 0.46 0.45 0.41 0.43 0.44 0.45 0.49 0.56 0.63 0.63 0.65 0.68 0.67
0.35 0.39 0.47 0.49 0.45 0.31 0.23 0.24 0.24 0.22 0.19 0.16 0.14 0.14 0.17 0.21 0.22 0.22 0.23 0.25 0.25 0.25 0.27 0.28 0.31 0.32 0.37 0.40 0.38 0.40 0.45 0.49 0.44 0.39 0.41 0.45 0.49 0.54 0.55 0.63 0.64 0.65 0.67 0.69
0.31 0.28 0.36 0.39 0.29 0.19 0.19 0.20 0.19 0.17 0.17 0.15 0.14 0.15 0.19 0.21 0.23 0.26 0.24 0.26 0.28 0.28 0.28 0.30 0.34 0.38 0.42 0.45 0.46 0.48 0.52 0.52 0.49 0.47 0.47 0.49 0.53 0.58 0.61 0.62 0.67 0.70 0.72 0.76
0.33 0.31 0.36 0.37 0.30 0.22 0.17 0.16 0.15 0.16 0.17 0.17 0.18 0.19 0.22 0.24 0.25 0.29 0.29 0.31 0.33 0.32 0.30 0.32 0.36 0.38 0.44 0.46 0.48 0.51 0.52 0.53 0.50 0.48 0.50 0.55 0.57 0.63 0.69 0.69 0.70 0.75 0.79 0.89
0.32 0.36 0.44 0.43 0.34 0.33 0.25 0.19 0.15 0.16 0.19 0.18 0.20 0.20 0.20 0.21 0.23 0.25 0.30 0.36 0.40 0.41 0.39 0.39 0.41 0.45 0.47 0.48 0.48 0.49 0.50 0.51 0.50 0.50 0.53 0.55 0.58 0.62 0.67 0.74 0.76 0.81 0.82 0.90